RH
9 11 19 32 44 56 65 74 62 56 54 50 51 50 47 61 66 61 50 42 37 38 54 77 77 88 90 98 98 100 97 93
14 20 21 16 32 49 59 70 75 81 72 68 68 62 77 66 56 53 53 49 48 46 53 82 87 89 90 93 97 100 98 98
18 23 26 28 24 19 48 60 75 85 84 87 86 83 77 80 77 61 53 54 50 46 52 75 88 90 95 94 92 99 100 92
24 26 29 30 33 26 29 46 69 82 88 87 91 94 90 83 70 60 60 57 52 50 49 49 64 85 87 94 92 98 99 94
29 30 33 33 38 31 29 25 32 69 86 89 89 87 87 79 75 72 65 54 48 50 51 52 45 52 66 80 92 96 100 96
28 31 33 34 30 26 25 27 42 46 73 90 89 89 89 88 89 92 92 93 80 73 61 57 55 50 54 69 85 96 98 98
22 23 28 30 33 27 27 26 28 44 55 76 92 92 87 88 90 89 91 94 98 85 86 77 66 61 59 63 87 88 85 82
19 21 24 28 32 31 32 43 30 29 31 46 74 87 92 90 88 85 90 94 92 93 99 99 96 78 80 88 84 77 87 81
20 20 24 31 34 37 20 20 36 29 28 29 32 47 73 78 73 77 82 85 88 92 99 100 99 98 99 99 95 70 84 81
19 19 21 27 34 40 45 40 39 32 32 32 33 36 41 72 76 68 74 82 85 89 95 98 99 98 100 100 100 84 75 73
17 18 21 28 33 37 46 47 46 46 34 31 55 41 54 74 77 76 64 69 88 90 97 99 98 99 98 100 100 95 85 74
18 19 24 29 32 35 39 46 49 47 50 49 39 40 41 89 93 75 73 72 90 91 96 100 98 98 99 99 100 99 100 93
21 22 27 29 28 37 37 44 45 46 48 53 56 62 62 84 97 98 97 92 91 92 97 99 99 90 100 100 100 100 100 98
22 24 26 28 28 38 42 42 41 41 44 48 50 59 70 74 90 96 99 96 93 91 98 100 100 92 100 100 100 100 100 100
23 24 24 24 25 36 39 40 43 43 42 44 47 52 66 81 81 94 90 100 99 96 95 100 100 98 100 100 100 100 100 100
23 24 24 26 26 35 38 37 39 43 45 46 48 50 54 69 75 90 72 80 99 100 100 100 100 100 100 100 100 100 100 100
23 26 26 30 36 40 38 35 35 42 47 47 47 50 48 59 76 67 75 90 89 100 100 100 100 100 100 100 100 100 100 100
26 28 31 40 38 34 34 32 34 41 46 45 46 45 46 52 65 70 69 79 100 95 100 100 100 100 100 100 100 100 99 100
31 32 31 33 35 34 34 34 35 42 43 44 45 45 45 52 63 80 56 79 93 90 90 100 100 100 100 100 100 100 100 100
Wind_Speed
13 12 12 14 16 19 23 25 30 32 33 35 35 36 38 35 34 36 37 38 39 39 35 30 29 25 24 24 22 21 20 18
7 8 8 8 9 15 19 21 25 26 31 35 36 37 34 36 39 40 40 40 39 40 38 31 31 29 29 28 26 26 22 23
5 8 9 10 11 7 12 18 19 23 25 28 31 31 33 32 34 39 43 43 44 44 42 36 32 30 31 30 34 31 25 33
7 10 12 12 13 13 13 9 15 19 23 23 26 28 31 33 40 44 44 44 45 45 47 47 43 37 35 35 39 35 29 33
10 11 12 14 14 13 13 14 11 11 17 22 25 28 31 39 41 41 44 46 47 47 48 50 51 51 49 43 41 41 33 35
13 15 15 14 16 15 14 14 13 11 12 18 21 26 30 32 30 34 36 38 45 46 49 50 53 55 54 50 48 46 41 42
15 15 15 17 18 18 16 14 13 13 13 15 21 25 27 29 29 32 34 36 37 45 45 47 50 54 56 55 49 54 51 45
18 19 18 18 20 21 20 20 17 15 16 15 17 23 28 30 32 35 35 38 40 44 43 42 44 51 52 50 51 56 48 45
19 20 18 18 18 19 22 21 21 18 17 19 21 21 24 30 32 35 38 39 40 40 44 44 42 37 44 48 53 56 49 42
22 23 20 19 18 19 20 21 21 23 23 22 22 25 26 27 31 37 38 39 39 41 44 46 41 41 35 49 54 55 50 41
30 25 22 19 17 17 19 19 20 22 24 25 25 27 27 29 32 37 40 41 39 39 43 47 43 36 39 48 53 52 49 45
28 27 23 20 18 19 18 18 19 21 23 24 27 28 30 28 31 36 37 38 36 38 41 43 41 37 46 42 53 49 49 47
23 23 22 20 20 19 18 18 20 22 23 25 26 27 28 27 29 29 28 30 34 37 42 44 41 34 48 44 48 48 50 48
23 22 23 23 23 19 19 20 22 24 25 26 27 27 28 28 27 29 30 30 29 36 39 42 44 38 47 45 47 45 49 47
25 25 25 25 24 21 22 24 25 25 26 27 28 29 30 30 29 27 28 33 31 32 37 40 42 41 45 46 43 45 47 45
26 27 27 26 23 22 24 27 28 28 28 28 29 29 29 29 31 28 28 26 36 34 35 41 44 42 44 47 44 45 46 44
26 26 25 23 20 23 28 32 32 31 30 29 29 29 28 28 28 31 28 27 26 31 42 40 41 44 45 44 42 42 42 42
25 26 26 20 24 30 33 34 33 32 31 30 29 29 30 29 29 29 30 27 21 25 38 41 41 42 41 38 38 41 42 44
28 33 34 34 34 36 35 35 33 31 31 32 31 30 31 31 29 30 29 28 25 16 20 34 36 36 36 36 39 41 44 44
Wind_Direction
297 290 286 279 265 255 250 248 257 249 246 244 243 243 242 240 241 242 242 243 242 240 237 233 233 228 230 231 228 229 226 229
320 343 338 309 287 269 256 251 254 247 243 240 240 241 242 242 242 244 245 244 245 242 239 235 233 231 229 231 227 225 228 223
355 28 28 18 4 320 275 265 254 247 242 242 239 240 243 246 247 249 249 247 247 246 243 234 233 232 232 228 230 222 221 233
29 20 17 14 5 4 3 309 266 249 246 245 243 242 243 243 248 251 252 251 250 251 251 248 239 233 231 231 231 224 219 231
26 21 13 10 357 345 341 342 337 275 248 247 243 242 245 251 257 258 259 259 259 256 254 252 250 245 241 234 232 232 220 227
31 18 13 9 6 356 337 333 339 323 276 252 252 253 256 260 257 256 250 254 261 258 254 252 252 250 245 239 234 233 226 225
32 20 11 3 4 6 356 335 327 327 315 270 259 259 261 264 263 259 257 254 256 261 255 254 253 251 246 242 235 241 237 240
16 6 2 355 355 358 359 348 339 318 312 301 276 267 267 265 265 265 262 256 254 257 257 250 253 253 247 237 236 243 239 238
359 352 345 342 344 345 348 344 338 328 318 309 296 284 274 271 272 266 265 260 257 260 261 257 251 251 246 239 238 243 241 235
343 337 334 333 331 336 338 337 336 331 325 319 310 299 291 283 273 273 270 268 262 258 258 261 256 244 250 236 238 241 242 236
331 330 327 323 322 325 327 329 329 328 327 325 317 312 301 295 289 282 276 269 263 259 253 256 257 253 239 241 243 243 239 233
324 323 322 319 319 322 324 327 331 330 329 325 323 316 311 302 295 287 281 276 262 257 254 249 253 254 235 250 244 248 237 230
315 314 313 313 318 318 325 330 331 332 331 327 326 321 315 306 299 294 292 284 268 260 252 249 250 256 240 248 245 242 233 227
311 314 308 308 312 311 316 322 326 330 328 328 327 326 322 311 308 297 284 285 271 261 256 253 248 251 247 245 244 238 229 226
311 307 308 306 299 300 308 314 318 322 324 325 324 324 324 321 305 307 287 286 281 268 258 255 251 250 250 242 241 231 225 224
312 310 307 304 299 297 304 308 312 314 317 318 319 319 321 320 316 297 307 294 279 283 263 256 245 249 246 238 234 224 219 214
319 320 314 308 299 304 306 309 308 308 310 312 315 315 317 316 317 308 303 312 311 270 257 247 250 244 239 235 231 219 216 212
316 320 317 306 303 307 305 307 305 302 304 307 309 311 313 313 311 310 299 299 306 292 260 249 243 241 237 237 226 218 213 209
310 309 306 298 297 300 300 300 299 298 299 302 305 307 309 309 306 301 302 288 282 283 297 265 252 245 240 233 224 216 210 207